Time,TemperatureF,DewpointF,PressureIn,WindDirection,WindDirectionDegrees,WindSpeedMPH,WindSpeedGustMPH,Humidity,HourlyPrecipIn,Conditions,Clouds,dailyrainin,SolarRadiationWatts/m^2,SoftwareType,DateUTC
2013-07-21 00:11:00,87.0,32.0,-100.00,WNW,288,12.0,17.0,14,0.00,,,0.00,0.000000,,2013-07-21 07:11:00,
2013-07-21 00:22:00,87.0,32.0,-100.00,WNW,288,12.0,17.0,14,0.00,,,0.00,0.000000,,2013-07-21 07:22:00,
2013-07-21 00:32:00,87.0,32.0,-100.00,WNW,288,12.0,17.0,14,0.00,,,0.00,0.000000,,2013-07-21 07:32:00,
2013-07-21 00:43:00,87.0,32.0,-100.00,WNW,288,12.0,17.0,14,0.00,,,0.00,0.000000,,2013-07-21 07:43:00,
2013-07-21 01:11:00,85.0,38.0,-100.00,WNW,288,9.0,16.0,19,0.00,,,0.00,0.000000,,2013-07-21 08:11:00,
2013-07-21 01:22:00,85.0,38.0,-100.00,WNW,288,9.0,16.0,19,0.00,,,0.00,0.000000,,2013-07-21 08:22:00,
2013-07-21 01:33:00,85.0,38.0,-100.00,WNW,288,9.0,16.0,19,0.00,,,0.00,0.000000,,2013-07-21 08:33:00,
2013-07-21 01:43:00,85.0,38.0,-100.00,WNW,288,9.0,16.0,19,0.00,,,0.00,0.000000,,2013-07-21 08:43:00,
2013-07-21 02:12:00,85.0,37.0,-100.00,WNW,299,10.0,14.0,18,0.00,,,0.00,0.000000,,2013-07-21 09:12:00,
2013-07-21 02:22:00,85.0,37.0,-100.00,WNW,299,10.0,14.0,18,0.00,,,0.00,0.000000,,2013-07-21 09:22:00,
2013-07-21 02:32:00,85.0,37.0,-100.00,WNW,299,10.0,14.0,18,0.00,,,0.00,0.000000,,2013-07-21 09:32:00,
2013-07-21 02:42:00,85.0,37.0,-100.00,WNW,299,10.0,14.0,18,0.00,,,0.00,0.000000,,2013-07-21 09:42:00,
2013-07-21 03:11:00,82.0,33.0,-100.00,WNW,292,10.0,15.0,17,0.00,,,0.00,0.000000,,2013-07-21 10:11:00,
2013-07-21 03:22:00,82.0,33.0,-100.00,WNW,292,10.0,15.0,17,0.00,,,0.00,0.000000,,2013-07-21 10:22:00,
2013-07-21 03:32:00,82.0,33.0,-100.00,WNW,292,10.0,15.0,17,0.00,,,0.00,0.000000,,2013-07-21 10:32:00,
2013-07-21 03:43:00,82.0,33.0,-100.00,WNW,292,10.0,15.0,17,0.00,,,0.00,0.000000,,2013-07-21 10:43:00,
2013-07-21 04:11:00,79.0,30.0,-100.00,NW,306,5.0,15.0,17,0.00,,,0.00,0.000000,,2013-07-21 11:11:00,
2013-07-21 04:22:00,79.0,30.0,-100.00,NW,306,5.0,15.0,17,0.00,,,0.00,0.000000,,2013-07-21 11:22:00,
2013-07-21 04:32:00,79.0,30.0,-100.00,NW,306,5.0,15.0,17,0.00,,,0.00,0.000000,,2013-07-21 11:32:00,
2013-07-21 04:43:00,79.0,30.0,-100.00,NW,306,5.0,15.0,17,0.00,,,0.00,0.000000,,2013-07-21 11:43:00,
2013-07-21 05:11:00,78.0,31.0,-100.00,WNW,293,9.0,13.0,18,0.00,,,0.00,0.000000,,2013-07-21 12:11:00,
2013-07-21 05:22:00,78.0,31.0,-100.00,WNW,293,9.0,13.0,18,0.00,,,0.00,0.000000,,2013-07-21 12:22:00,
2013-07-21 05:32:00,78.0,31.0,-100.00,WNW,293,9.0,13.0,18,0.00,,,0.00,0.000000,,2013-07-21 12:32:00,
2013-07-21 05:43:00,78.0,31.0,-100.00,WNW,293,9.0,13.0,18,0.00,,,0.00,0.000000,,2013-07-21 12:43:00,
2013-07-21 06:12:00,71.0,31.0,-100.00,WSW,255,3.0,13.0,23,0.00,,,0.00,0.000000,,2013-07-21 13:12:00,
2013-07-21 06:22:00,71.0,31.0,-100.00,WSW,255,3.0,13.0,23,0.00,,,0.00,0.000000,,2013-07-21 13:22:00,
2013-07-21 06:32:00,71.0,31.0,-100.00,WSW,255,3.0,13.0,23,0.00,,,0.00,0.000000,,2013-07-21 13:32:00,
2013-07-21 06:42:00,71.0,31.0,-100.00,WSW,255,3.0,13.0,23,0.00,,,0.00,0.000000,,2013-07-21 13:42:00,
2013-07-21 07:22:00,79.0,37.0,-100.00,WSW,252,5.0,8.0,22,0.00,,,0.00,63.000000,,2013-07-21 14:22:00,
2013-07-21 07:32:00,79.0,37.0,-100.00,WSW,252,5.0,8.0,22,0.00,,,0.00,63.000000,,2013-07-21 14:32:00,
2013-07-21 07:43:00,79.0,37.0,-100.00,WSW,252,5.0,8.0,22,0.00,,,0.00,63.000000,,2013-07-21 14:43:00,
2013-07-21 09:22:00,89.0,35.0,-100.00,NW,309,12.0,17.0,15,0.00,,,0.00,503.000000,,2013-07-21 16:22:00,
2013-07-21 09:32:00,89.0,35.0,-100.00,NW,309,12.0,17.0,15,0.00,,,0.00,503.000000,,2013-07-21 16:32:00,
2013-07-21 09:42:00,89.0,35.0,-100.00,NW,309,12.0,17.0,15,0.00,,,0.00,503.000000,,2013-07-21 16:42:00,
2013-07-21 10:11:00,92.0,34.0,-100.00,NW,314,7.0,17.0,13,0.00,,,0.00,735.000000,,2013-07-21 17:11:00,
2013-07-21 10:22:00,92.0,34.0,-100.00,NW,314,7.0,17.0,13,0.00,,,0.00,735.000000,,2013-07-21 17:22:00,
2013-07-21 10:33:00,92.0,34.0,-100.00,NW,314,7.0,17.0,13,0.00,,,0.00,735.000000,,2013-07-21 17:33:00,
2013-07-21 10:42:00,92.0,34.0,-100.00,NW,314,7.0,17.0,13,0.00,,,0.00,735.000000,,2013-07-21 17:42:00,
2013-07-21 11:11:00,96.0,31.0,-100.00,NE,41,6.0,13.0,10,0.00,,,0.00,937.000000,,2013-07-21 18:11:00,
2013-07-21 11:32:00,96.0,31.0,-100.00,NE,41,6.0,13.0,10,0.00,,,0.00,937.000000,,2013-07-21 18:32:00,
2013-07-21 11:43:00,96.0,31.0,-100.00,NE,41,6.0,13.0,10,0.00,,,0.00,937.000000,,2013-07-21 18:43:00,
2013-07-21 12:11:00,100.0,31.0,-100.00,SSE,168,6.0,14.0,9,0.00,,,0.00,1092.000000,,2013-07-21 19:11:00,
2013-07-21 12:22:00,100.0,31.0,-100.00,SSE,168,6.0,14.0,9,0.00,,,0.00,1092.000000,,2013-07-21 19:22:00,
2013-07-21 12:32:00,100.0,31.0,-100.00,SSE,168,6.0,14.0,9,0.00,,,0.00,1092.000000,,2013-07-21 19:32:00,
2013-07-21 12:42:00,100.0,31.0,-100.00,SSE,168,6.0,14.0,9,0.00,,,0.00,1092.000000,,2013-07-21 19:42:00,
2013-07-21 13:11:00,100.0,31.0,-100.00,NE,48,4.0,15.0,9,0.00,,,0.00,1179.000000,,2013-07-21 20:11:00,
2013-07-21 13:22:00,100.0,31.0,-100.00,NE,48,4.0,15.0,9,0.00,,,0.00,1179.000000,,2013-07-21 20:22:00,
2013-07-21 13:32:00,100.0,31.0,-100.00,NE,48,4.0,15.0,9,0.00,,,0.00,1179.000000,,2013-07-21 20:32:00,
2013-07-21 13:42:00,100.0,31.0,-100.00,NE,48,4.0,15.0,9,0.00,,,0.00,1179.000000,,2013-07-21 20:42:00,
2013-07-21 14:11:00,103.0,30.0,-100.00,NNE,14,6.0,17.0,8,0.00,,,0.00,1201.000000,,2013-07-21 21:11:00,
2013-07-21 14:22:00,103.0,30.0,-100.00,NNE,14,6.0,17.0,8,0.00,,,0.00,1201.000000,,2013-07-21 21:22:00,
2013-07-21 14:32:00,103.0,30.0,-100.00,NNE,14,6.0,17.0,8,0.00,,,0.00,1201.000000,,2013-07-21 21:32:00,
2013-07-21 14:43:00,103.0,30.0,-100.00,NNE,14,6.0,17.0,8,0.00,,,0.00,1201.000000,,2013-07-21 21:43:00,
2013-07-21 15:11:00,105.0,29.0,-100.00,NW,308,6.0,17.0,7,0.00,,,0.00,1160.000000,,2013-07-21 22:11:00,
2013-07-21 15:22:00,105.0,29.0,-100.00,NW,308,6.0,17.0,7,0.00,,,0.00,1160.000000,,2013-07-21 22:22:00,
2013-07-21 15:32:00,105.0,29.0,-100.00,NW,308,6.0,17.0,7,0.00,,,0.00,1160.000000,,2013-07-21 22:32:00,
2013-07-21 15:42:00,105.0,29.0,-100.00,NW,308,6.0,17.0,7,0.00,,,0.00,1160.000000,,2013-07-21 22:42:00,
2013-07-21 16:11:00,106.0,25.0,-100.00,NW,313,7.0,17.0,6,0.00,,,0.00,1056.000000,,2013-07-21 23:11:00,
2013-07-21 16:22:00,106.0,25.0,-100.00,NW,313,7.0,17.0,6,0.00,,,0.00,1056.000000,,2013-07-21 23:22:00,
2013-07-21 16:32:00,106.0,25.0,-100.00,NW,313,7.0,17.0,6,0.00,,,0.00,1056.000000,,2013-07-21 23:32:00,
2013-07-21 16:42:00,106.0,25.0,-100.00,NW,313,7.0,17.0,6,0.00,,,0.00,1056.000000,,2013-07-21 23:42:00,
2013-07-21 17:11:00,107.0,30.0,-100.00,North,358,12.0,22.0,7,0.00,,,0.00,993.000000,,2013-07-22 00:11:00,
2013-07-21 17:22:00,107.0,30.0,-100.00,North,358,12.0,22.0,7,0.00,,,0.00,993.000000,,2013-07-22 00:22:00,
2013-07-21 17:32:00,107.0,30.0,-100.00,North,358,12.0,22.0,7,0.00,,,0.00,993.000000,,2013-07-22 00:32:00,
2013-07-21 17:42:00,107.0,30.0,-100.00,North,358,12.0,22.0,7,0.00,,,0.00,993.000000,,2013-07-22 00:42:00,
2013-07-21 18:11:00,104.0,24.0,-100.00,NNE,22,10.0,24.0,6,0.00,,,0.00,748.000000,,2013-07-22 01:11:00,
2013-07-21 18:21:00,104.0,24.0,-100.00,NNE,22,10.0,24.0,6,0.00,,,0.00,748.000000,,2013-07-22 01:21:00,
2013-07-21 18:32:00,104.0,24.0,-100.00,NNE,22,10.0,24.0,6,0.00,,,0.00,748.000000,,2013-07-22 01:32:00,
2013-07-21 18:42:00,104.0,24.0,-100.00,NNE,22,10.0,24.0,6,0.00,,,0.00,748.000000,,2013-07-22 01:42:00,
2013-07-21 19:11:00,102.0,26.0,-100.00,North,351,10.0,20.0,7,0.00,,,0.00,420.000000,,2013-07-22 02:11:00,
2013-07-21 19:22:00,102.0,26.0,-100.00,North,351,10.0,20.0,7,0.00,,,0.00,420.000000,,2013-07-22 02:22:00,
2013-07-21 19:32:00,102.0,26.0,-100.00,North,351,10.0,20.0,7,0.00,,,0.00,420.000000,,2013-07-22 02:32:00,
2013-07-21 19:43:00,102.0,26.0,-100.00,North,351,10.0,20.0,7,0.00,,,0.00,420.000000,,2013-07-22 02:43:00,
2013-07-21 20:11:00,100.0,25.0,-100.00,North,11,7.0,16.0,7,0.00,,,-99.99,150.000000,,2013-07-22 03:11:00,
2013-07-21 20:22:00,100.0,25.0,-100.00,North,11,7.0,16.0,7,0.00,,,-99.99,150.000000,,2013-07-22 03:22:00,
2013-07-21 20:43:00,100.0,25.0,-100.00,North,11,7.0,16.0,7,0.00,,,-99.99,150.000000,,2013-07-22 03:43:00,
2013-07-21 21:12:00,94.0,36.0,-100.00,NNE,25,9.0,13.0,13,0.00,,,0.00,16.000000,,2013-07-22 04:12:00,
2013-07-21 21:22:00,94.0,36.0,-100.00,NNE,25,9.0,13.0,13,0.00,,,0.00,16.000000,,2013-07-22 04:22:00,
2013-07-21 21:33:00,94.0,36.0,-100.00,NNE,25,9.0,13.0,13,0.00,,,0.00,16.000000,,2013-07-22 04:33:00,
2013-07-21 21:43:00,94.0,36.0,-100.00,NNE,25,9.0,13.0,13,0.00,,,0.00,16.000000,,2013-07-22 04:43:00,
2013-07-21 22:11:00,89.0,34.0,-100.00,WNW,297,8.0,12.0,14,0.00,,,0.00,0.000000,,2013-07-22 05:11:00,
2013-07-21 22:22:00,89.0,34.0,-100.00,WNW,297,8.0,12.0,14,0.00,,,0.00,0.000000,,2013-07-22 05:22:00,
2013-07-21 22:32:00,89.0,34.0,-100.00,WNW,297,8.0,12.0,14,0.00,,,0.00,0.000000,,2013-07-22 05:32:00,
2013-07-21 22:42:00,89.0,34.0,-100.00,WNW,297,8.0,12.0,14,0.00,,,0.00,0.000000,,2013-07-22 05:42:00,
2013-07-21 23:11:00,89.0,41.0,-100.00,WNW,294,12.0,22.0,19,0.00,,,0.00,0.000000,,2013-07-22 06:11:00,
2013-07-21 23:22:00,89.0,41.0,-100.00,WNW,294,12.0,22.0,19,0.00,,,0.00,0.000000,,2013-07-22 06:22:00,
2013-07-21 23:32:00,89.0,41.0,-100.00,WNW,294,12.0,22.0,19,0.00,,,0.00,0.000000,,2013-07-22 06:32:00,
2013-07-21 23:43:00,89.0,41.0,-100.00,WNW,294,12.0,22.0,19,0.00,,,0.00,0.000000,,2013-07-22 06:43:00,